Location: Belloy
(55.7522°N, 118.2333°W)
Time: 00:13:17
(UTC+00:00)

Envisat - Pass Details

Date: 08 December 2021
Orbit: 764 x 766 km, 98.2° (Epoch: 27 January)

Event Time Altitude Azimuth Distance (km) Brightness Sun altitude
Rises 11:21:55 0° 26° (NNE) 3,248 6.7 -38.5°
Reaches altitude 10° 11:25:25 10° 51° (NE) 2,315 6.1 -38.1°
Maximum altitude 11:28:04 14° 83° (E) 2,036 5.8 -37.7°
Drops below altitude 10° 11:30:43 10° 115° (ESE) 2,306 6.0 -37.3°
Sets 11:34:11 0° 140° (SE) 3,225 6.5 -36.9°
